Location: Camaret
(48.2753°N, 4.5961°W)
Time: 03:33:21
(UTC+00:00)

Cosmos 2227 - Pass Details

Date: 29 October 2020
Orbit: 836 x 860 km, 71.0° (Epoch: 01 December)

Event Time Altitude Azimuth Distance (km) Brightness Sun altitude
Rises 19:30:29 0° 333° (NNW) 3,397 7.8 -24.9°
Reaches altitude 10° 19:32:57 10° 336° (NNW) 2,458 7.0 -25.3°
Enters shadow 19:38:25 69° 46° (NE) 895 4.1 -26.2°
